User: anonymous   Login
Location: ????????
(55.0097°N, 38.5678°E)
Time: 00:11:29
(UTC+00:00)
Language:

Cosmos 1626 - Orbit

View from above orbital plane
View from above orbital plane
View from above satellite
View from above satellite

Ground track
Ground track

The orbit data is extracted from the following two-line orbital elements,

1 15494U 85009A   24169.81921244  .00032853  00000-0  50611-3 0  9995
2 15494  82.4649 189.7480 0003756 111.6727 248.4926 15.54016654159233
Epoch (UTC): 17 June 2024 19:39:39
Eccentricity: 0.0003756
inclination: 82.4649°
perigee height: 402 km
apogee height: 407 km
right ascension of ascending node: 189.7480°
argument of perigee: 111.6727°
revolutions per day: 15.54016654
mean anomaly at epoch: 248.4926°
orbit number at epoch: 15923

The dashed part of the orbit path shows where the satellite is in the earth's shadow,  

DLR